{"data":{"norad_id":57855,"epoch":"2026-05-25T02:49:17.508000Z","epoch_age_seconds":65197,"freshness":"FRESH","line1":"1 57855U 23141R   26145.11756375 -.00000155  00000+0  68911-5 0  9995","line2":"2 57855  53.1598 288.8241 0001177 102.4581 257.6552 15.30188159152037","mean_motion":15.30188159,"eccentricity":0.0001177,"inclination_deg":53.1598,"raan_deg":288.8241,"arg_perigee_deg":102.4581,"mean_anomaly_deg":257.6552,"bstar":6.8911e-6,"rev_number":15203,"period_min":94.106073918456,"perigee_km":474.44378103907,"apogee_km":476.05706843885,"semimajor_km":6853.387424739,"source":"CELESTRAK","updated_at":"2026-05-25T13:38:18.416371Z"}}